Location: Unspecified
(0.0000°N, 0.0000°E)
Time: 07:46:23
(UTC+00:00)

METEOR M2 - Pass Details

Date: 05 June 2024
Orbit: 818 x 826 km, 98.4° (Epoch: 19 June)

Event Time Altitude Azimuth Distance (km) Brightness Sun altitude
Rises 18:13:19 0° 203° (SSW) 3,350 ? -3.4°
Reaches altitude 10° 18:16:53 10° 227° (SW) 2,413 ? -4.2°
Maximum altitude 18:19:29 14° 257° (WSW) 2,152 ? -4.8°
Drops below altitude 10° 18:22:05 10° 287° (WNW) 2,406 ? -5.4°
Sets 18:25:39 0° 312° (NW) 3,334 ? -6.2°
